Location: Asheville, NC
(35.6000°N, 82.5500°W)
Time: 16:31:41
(UTC-05:00)

Vanguard 1 - Pass Details

Date: 12 December 2017
Orbit: 649 x 3834 km, 34.3° (Epoch: 17 January)

Event Time Altitude Azimuth Distance (km) Brightness Sun altitude
Rises 07:28:22 0° 212° (SSW) 7,801 14.6 -1.2°
Reaches altitude 10° 07:34:13 10° 205° (SSW) 6,902 14.4 -0.2°
Maximum altitude 07:54:41 40° 145° (SE) 4,481 14.3 3.4°
Drops below altitude 10° 08:10:07 10° 84° (E) 5,350 14.7 6.0°
Sets 08:13:51 0° 77° (ENE) 5,981 14.8 6.7°
